Location: site
(53.0000°N, 23.0500°E)
Time: 17:28:44
(UTC+01:00)

SAOCOM 1-A - Pass Details

Date: 20 January 2020
Orbit: 621 x 623 km, 97.9° (Epoch: 25 February)

Event Time Altitude Azimuth Distance (km) Brightness Sun altitude
Exits shadow 19:45:43 12° 333° (NNW) 1,903 ? -34.9°
Maximum altitude 19:47:34 14° 306° (NW) 1,724 ? -35.2°
Drops below altitude 10° 19:49:54 10° 273° (W) 1,998 ? -35.5°
Sets 19:52:57 0° 250° (WSW) 2,900 ? -35.9°
